Погода в Провидения

Россия / Чукотский автономный округ     64°25′38″N   173°13′08″W
В апреле 2022 года жителям России запретили посещать сайт meteo.paraplan.net по решению Генеральной прокуратуры. Аудитория сайта уменьшилась в 10 раз. Владельцы сайта не видят смысла в поддержке погодного сервера в таких условиях. Сайт будет закрыт в октябре.
темп.,
°C
ветер,
м/с
пор.,
м/с
влажн.,
%
обл.,
%
осадки,
мм/ч
давл.,
гПа
погр.,
м
6 октября, чт
чт600:00+1ююв3599100 0.4 1016305
03:00+1ююв3499100 0.8 1012115
06:00+1ююв2399100 1.2 100888
09:00+2юв3499100 1.6 1003226
12:00+3ююв61996100 7.3 9961150
15:00+4ю101998100 10.5 9901079
18:00+3юз152081100 12.7 9891120
21:00+2зюз1521719 0.1 9941146
7 октября, пт
пт700:00+2зюз1419775 0.1 997844
03:00+2юз14208216 0.1 999923
06:00+2юз1420808 0.1 1000973
09:00+3юз13188697 0.5 10011363
12:00+3юз12168237 1.3 10001407
15:00+2юз14188193 0.9 10001345
18:00+1зюз915765 1.1 1002604
21:00+1юз8149799 0.6 1002787
8 октября, сб
сб800:00+2юз9159598 2.9 1001920
03:00+1юз338498 0.1 1003107
06:00+1юз712767 0.3 1003587
09:00+1ююз597689 0.6 10031186
12:000з8107111 0.9 10051097
15:00−1зюз79675 0.0 1005995
18:00−2зюз11778 0.0 100614
21:00−3зсз117915 0.0 100711
9 октября, вс
вс900:00−3сз11828 0.0 100812
03:00−3ссз11815 0.0 101017
06:00−3сз11801 0.0 101211
09:00−2з11681 0.0 1013187
12:00−1з256262 0.0 1014917
15:00−1з257067 0.1 1014908
18:00−2зюз227960 0.1 101459
21:00−2з6107239 0.0 1014392
10 октября, пн
пн1000:00−2зюз5106954 0.0 1015316
03:00−3юз227513 0.0 101418
06:00−3юз227852 0.0 101316
09:00−1ююз2382100 0.1 1012320
12:000вюв1266100 0.1 1010747
15:00−1всв2375100 0.1 1007554
18:00−2св4884100 0.1 1004678
21:00−2св61397100 2.1 998893